DAL74 KISP-KMCO

Flight info

Callsign DAL74
Flight time 2h 7m
Altitude 36000
Route BEADS EMJAY Q167 ZJAAY Q97 SAWED MOXXY Q85 LPERD SNFLD3
Aircraft A20N/M-SDE3FGHIRWY/LB2

Departure

Time 2026-04-21 16:35
Airport Long Island MacArthur Airport (KISP)

Arrival

Time 2026-04-21 18:43
Airport Orlando International Airport (KMCO)
Time Latitude Longitude Altitude Speed Heading
2026-04-21 16:14 40.79010 -73.09439 92 ft 0 kts 227°
2026-04-21 16:28 40.79010 -73.09440 92 ft 4 kts 228°
2026-04-21 16:28 40.79026 -73.09415 92 ft 4 kts 250°
2026-04-21 16:29 40.79026 -73.09384 92 ft 4 kts 302°
2026-04-21 16:29 40.79017 -73.09368 92 ft 1 kts 315°
2026-04-21 16:29 40.79015 -73.09366 92 ft 0 kts 315°
2026-04-21 16:31 40.79031 -73.09387 95 ft 5 kts 315°
2026-04-21 16:32 40.79061 -73.09426 92 ft 8 kts 315°
2026-04-21 16:32 40.79131 -73.09507 94 ft 14 kts 341°
2026-04-21 16:32 40.79212 -73.09453 92 ft 13 kts 19°
2026-04-21 16:32 40.79298 -73.09471 94 ft 14 kts 356°
2026-04-21 16:33 40.79396 -73.09470 94 ft 14 kts
2026-04-21 16:33 40.79503 -73.09470 94 ft 16 kts 359°
2026-04-21 16:33 40.79643 -73.09470 95 ft 24 kts
2026-04-21 16:33 40.79812 -73.09470 97 ft 24 kts
2026-04-21 16:34 40.79966 -73.09470 95 ft 17 kts 360°
2026-04-21 16:34 40.80078 -73.09446 95 ft 17 kts 41°
2026-04-21 16:34 40.80174 -73.09411 93 ft 15 kts 322°
2026-04-21 16:34 40.80195 -73.09498 96 ft 9 kts 224°
2026-04-21 16:35 40.80086 -73.09638 99 ft 50 kts 225°
2026-04-21 16:35 40.79649 -73.10212 99 ft 128 kts 225°
2026-04-21 16:35 40.78877 -73.11237 311 ft 174 kts 223°
2026-04-21 16:35 40.77994 -73.12405 1001 ft 188 kts 224°
2026-04-21 16:36 40.76986 -73.13653 1635 ft 204 kts 219°
2026-04-21 16:36 40.75736 -73.14607 2429 ft 214 kts 199°
2026-04-21 16:36 40.74201 -73.14861 2962 ft 235 kts 174°
2026-04-21 16:36 40.72506 -73.14438 3259 ft 263 kts 167°
2026-04-21 16:37 40.70676 -73.14110 3665 ft 263 kts 185°
2026-04-21 16:37 40.68879 -73.14374 4147 ft 258 kts 183°
2026-04-21 16:37 40.67084 -73.14204 4824 ft 260 kts 169°
2026-04-21 16:37 40.65330 -73.13671 5474 ft 264 kts 166°
2026-04-21 16:38 40.63535 -73.13086 6163 ft 268 kts 169°
2026-04-21 16:38 40.61639 -73.12825 6907 ft 273 kts 182°
2026-04-21 16:38 40.59763 -73.13092 7655 ft 278 kts 193°
2026-04-21 16:38 40.57829 -73.13488 8463 ft 285 kts 192°
2026-04-21 16:39 40.55852 -73.13917 9311 ft 291 kts 194°
2026-04-21 16:39 40.53839 -73.14393 10196 ft 296 kts 195°
2026-04-21 16:39 40.51751 -73.14923 10643 ft 317 kts 195°
2026-04-21 16:39 40.49513 -73.15520 11035 ft 338 kts 195°
2026-04-21 16:40 40.47170 -73.16152 11694 ft 348 kts 196°
2026-04-21 16:40 40.44775 -73.16794 12496 ft 355 kts 196°
2026-04-21 16:40 40.42328 -73.17448 13300 ft 362 kts 196°
2026-04-21 16:40 40.39843 -73.18109 14112 ft 368 kts 196°
2026-04-21 16:41 40.37313 -73.18781 14842 ft 373 kts 196°
2026-04-21 16:41 40.34750 -73.19460 15577 ft 378 kts 196°
2026-04-21 16:41 40.32152 -73.20148 16290 ft 383 kts 196°
2026-04-21 16:41 40.29519 -73.20845 16979 ft 388 kts 196°
2026-04-21 16:42 40.26849 -73.21552 17679 ft 393 kts 196°
2026-04-21 16:42 40.24154 -73.22265 18366 ft 398 kts 196°
2026-04-21 16:42 40.21423 -73.22987 19004 ft 403 kts 197°
2026-04-21 16:42 40.18656 -73.23719 19577 ft 408 kts 197°
2026-04-21 16:43 40.15856 -73.24459 20134 ft 414 kts 197°
2026-04-21 16:43 40.13013 -73.25233 20705 ft 417 kts 200°
2026-04-21 16:43 40.10265 -73.26414 21250 ft 415 kts 211°
2026-04-21 16:43 40.07791 -73.28196 21813 ft 409 kts 221°
2026-04-21 16:44 40.05481 -73.30370 22350 ft 409 kts 226°
2026-04-21 16:44 40.03264 -73.32715 22939 ft 410 kts 229°
2026-04-21 16:44 40.01096 -73.35148 23502 ft 413 kts 230°
2026-04-21 16:44 39.98936 -73.37629 24024 ft 416 kts 230°
2026-04-21 16:45 39.96753 -73.40141 24469 ft 420 kts 230°
2026-04-21 16:45 39.94550 -73.42657 24924 ft 422 kts 230°
2026-04-21 16:45 39.92324 -73.45175 25358 ft 425 kts 229°
2026-04-21 16:45 39.90074 -73.47699 25800 ft 428 kts 229°
2026-04-21 16:46 39.87802 -73.50235 26227 ft 431 kts 229°
2026-04-21 16:46 39.85517 -73.52777 26652 ft 433 kts 229°
2026-04-21 16:46 39.83213 -73.55337 27052 ft 436 kts 229°
2026-04-21 16:46 39.80904 -73.57905 27459 ft 438 kts 229°
2026-04-21 16:47 39.78577 -73.60492 27848 ft 441 kts 229°
2026-04-21 16:47 39.76241 -73.63089 28237 ft 443 kts 229°
2026-04-21 16:47 39.73892 -73.65699 28565 ft 446 kts 229°
2026-04-21 16:47 39.71529 -73.68321 28970 ft 448 kts 229°
2026-04-21 16:48 39.69152 -73.70955 29337 ft 450 kts 229°
2026-04-21 16:48 39.66764 -73.73602 29698 ft 452 kts 229°
2026-04-21 16:48 39.64367 -73.76255 30038 ft 455 kts 229°
2026-04-21 16:48 39.61983 -73.78891 30391 ft 457 kts 229°
2026-04-21 16:49 39.59551 -73.81577 30677 ft 460 kts 229°
2026-04-21 16:49 39.57113 -73.84266 31026 ft 460 kts 229°
2026-04-21 16:49 39.54679 -73.86945 31465 ft 457 kts 229°
2026-04-21 16:49 39.52257 -73.89606 31899 ft 455 kts 229°
2026-04-21 16:50 39.49846 -73.92255 32301 ft 454 kts 229°
2026-04-21 16:50 39.47440 -73.94898 32679 ft 452 kts 229°
2026-04-21 16:50 39.45041 -73.97532 33077 ft 451 kts 229°
2026-04-21 16:50 39.42654 -74.00152 33455 ft 450 kts 228°
2026-04-21 16:51 39.40265 -74.02772 33765 ft 449 kts 228°
2026-04-21 16:51 39.37881 -74.05383 34082 ft 449 kts 228°
2026-04-21 16:51 39.35502 -74.07984 34427 ft 447 kts 228°
2026-04-21 16:51 39.33123 -74.10580 34731 ft 446 kts 228°
2026-04-21 16:52 39.30754 -74.13164 35002 ft 445 kts 228°
2026-04-21 16:52 39.28387 -74.15744 35242 ft 445 kts 228°
2026-04-21 16:52 39.26023 -74.18319 35482 ft 445 kts 228°
2026-04-21 16:52 39.23691 -74.20857 35718 ft 444 kts 228°
2026-04-21 16:53 39.21329 -74.23425 35947 ft 444 kts 228°
2026-04-21 16:53 39.18965 -74.25992 36171 ft 444 kts 228°
2026-04-21 16:53 39.16607 -74.28552 36356 ft 444 kts 227°
2026-04-21 16:54 39.11846 -74.33719 36429 ft 453 kts 227°
2026-04-21 16:54 39.06971 -74.39003 36427 ft 463 kts 227°
2026-04-21 16:55 39.01994 -74.44377 36430 ft 469 kts 227°
2026-04-21 16:55 38.96992 -74.49754 36428 ft 468 kts 227°
2026-04-21 16:56 38.92051 -74.55171 36437 ft 465 kts 229°
2026-04-21 16:56 38.87268 -74.60761 36438 ft 464 kts 230°
2026-04-21 16:57 38.82520 -74.66378 36443 ft 464 kts 230°
2026-04-21 16:57 38.77781 -74.71946 36433 ft 465 kts 229°
2026-04-21 16:58 38.72939 -74.77444 36439 ft 466 kts 227°
2026-04-21 16:58 38.67901 -74.82707 36434 ft 468 kts 226°
2026-04-21 16:59 38.62825 -74.87913 36431 ft 468 kts 226°
2026-04-21 16:59 38.57761 -74.93133 36427 ft 467 kts 226°
2026-04-21 17:00 38.52719 -74.98370 36429 ft 466 kts 227°
2026-04-21 17:00 38.48633 -75.02839 36442 ft 465 kts 228°
2026-04-21 17:01 38.42762 -75.08982 36432 ft 469 kts 224°
2026-04-21 17:01 38.37546 -75.13915 36431 ft 470 kts 223°
2026-04-21 17:02 38.32274 -75.18838 36431 ft 469 kts 223°
2026-04-21 17:02 38.27024 -75.23774 36430 ft 469 kts 223°
2026-04-21 17:03 38.21784 -75.28724 36428 ft 469 kts 223°
2026-04-21 17:03 38.16546 -75.33671 36414 ft 469 kts 223°
2026-04-21 17:04 38.11306 -75.38609 36414 ft 469 kts 223°
2026-04-21 17:04 38.06096 -75.43510 36394 ft 469 kts 223°
2026-04-21 17:05 38.00758 -75.48312 36414 ft 471 kts 221°
2026-04-21 17:05 37.95336 -75.53007 36430 ft 471 kts 221°
2026-04-21 17:06 37.90831 -75.56894 36429 ft 471 kts 221°
2026-04-21 17:06 37.85426 -75.61574 36428 ft 471 kts 221°
2026-04-21 17:07 37.79878 -75.66045 36433 ft 474 kts 218°
2026-04-21 17:07 37.74183 -75.70284 36437 ft 475 kts 217°
2026-04-21 17:08 37.68481 -75.74497 36448 ft 474 kts 217°
2026-04-21 17:08 37.62799 -75.78733 36408 ft 474 kts 217°
2026-04-21 17:09 37.54300 -75.85144 36440 ft 471 kts 221°
2026-04-21 17:09 37.49135 -75.90045 36438 ft 467 kts 225°
2026-04-21 17:10 37.44055 -75.95143 36429 ft 466 kts 226°
2026-04-21 17:10 37.39006 -76.00266 36430 ft 466 kts 226°
2026-04-21 17:11 37.33947 -76.05378 36423 ft 466 kts 226°
2026-04-21 17:11 37.28882 -76.10470 36437 ft 466 kts 226°
2026-04-21 17:12 37.23817 -76.15548 36417 ft 466 kts 225°
2026-04-21 17:12 37.18746 -76.20623 36436 ft 466 kts 225°
2026-04-21 17:13 37.13671 -76.25694 36434 ft 466 kts 226°
2026-04-21 17:13 37.08590 -76.30761 36441 ft 466 kts 226°
2026-04-21 17:14 37.03516 -76.35813 36443 ft 466 kts 225°
2026-04-21 17:14 36.98438 -76.40860 36448 ft 466 kts 225°
2026-04-21 17:15 36.93394 -76.45864 36430 ft 466 kts 226°
2026-04-21 17:15 36.88317 -76.50893 36418 ft 465 kts 225°
2026-04-21 17:16 36.83240 -76.55912 36441 ft 465 kts 225°
2026-04-21 17:16 36.78167 -76.60919 36441 ft 465 kts 225°
2026-04-21 17:17 36.73086 -76.65926 36440 ft 465 kts 225°
2026-04-21 17:17 36.68000 -76.70928 36442 ft 465 kts 225°
2026-04-21 17:18 36.62913 -76.75923 36442 ft 465 kts 225°
2026-04-21 17:18 36.57820 -76.80914 36437 ft 465 kts 225°
2026-04-21 17:19 36.52732 -76.85893 36436 ft 465 kts 225°
2026-04-21 17:19 36.47637 -76.90870 36434 ft 465 kts 225°
2026-04-21 17:20 36.42542 -76.95837 36440 ft 465 kts 225°
2026-04-21 17:20 36.37447 -77.00797 36445 ft 465 kts 225°
2026-04-21 17:21 36.32349 -77.05752 36430 ft 465 kts 225°
2026-04-21 17:21 36.27251 -77.10697 36424 ft 465 kts 225°
2026-04-21 17:22 36.22184 -77.15605 36429 ft 465 kts 225°
2026-04-21 17:22 36.17078 -77.20541 36431 ft 465 kts 225°
2026-04-21 17:23 36.11974 -77.25468 36425 ft 465 kts 225°
2026-04-21 17:23 36.06869 -77.30386 36410 ft 465 kts 225°
2026-04-21 17:24 36.01764 -77.35311 36441 ft 465 kts 226°
2026-04-21 17:24 35.96671 -77.40242 36450 ft 465 kts 226°
2026-04-21 17:25 35.91578 -77.45168 36448 ft 465 kts 226°
2026-04-21 17:25 35.86480 -77.50088 36450 ft 465 kts 226°
2026-04-21 17:26 35.81372 -77.55009 36427 ft 465 kts 226°
2026-04-21 17:26 35.76305 -77.59881 36412 ft 465 kts 226°
2026-04-21 17:27 35.71205 -77.64776 36428 ft 465 kts 226°
2026-04-21 17:27 35.66100 -77.69668 36430 ft 465 kts 226°
2026-04-21 17:28 35.61001 -77.74547 36408 ft 465 kts 226°
2026-04-21 17:28 35.55900 -77.79418 36436 ft 464 kts 226°
2026-04-21 17:29 35.50800 -77.84282 36422 ft 464 kts 226°
2026-04-21 17:29 35.45690 -77.89147 36422 ft 464 kts 226°
2026-04-21 17:30 35.40583 -77.94002 36422 ft 464 kts 226°
2026-04-21 17:30 35.35477 -77.98846 36448 ft 464 kts 226°
2026-04-21 17:31 35.30367 -78.03686 36449 ft 464 kts 226°
2026-04-21 17:31 35.25257 -78.08518 36446 ft 464 kts 226°
2026-04-21 17:32 35.20149 -78.13341 36438 ft 464 kts 226°
2026-04-21 17:32 35.15038 -78.18159 36417 ft 464 kts 226°
2026-04-21 17:33 35.09928 -78.22968 36421 ft 464 kts 226°
2026-04-21 17:33 35.04846 -78.27743 36421 ft 464 kts 226°
2026-04-21 17:34 34.99733 -78.32540 36422 ft 464 kts 226°
2026-04-21 17:34 34.94610 -78.37339 36424 ft 464 kts 226°
2026-04-21 17:35 34.89491 -78.42127 36423 ft 464 kts 226°
2026-04-21 17:35 34.84372 -78.46908 36418 ft 464 kts 226°
2026-04-21 17:36 34.79250 -78.51683 36402 ft 464 kts 226°
2026-04-21 17:36 34.74127 -78.56452 36403 ft 464 kts 226°
2026-04-21 17:37 34.69000 -78.61217 36397 ft 464 kts 226°
2026-04-21 17:37 34.63875 -78.65971 36403 ft 464 kts 226°
2026-04-21 17:38 34.58783 -78.70688 36399 ft 463 kts 226°
2026-04-21 17:38 34.53669 -78.75417 36400 ft 462 kts 226°
2026-04-21 17:39 34.48558 -78.80134 36402 ft 462 kts 226°
2026-04-21 17:39 34.43421 -78.84829 36400 ft 463 kts 225°
2026-04-21 17:40 34.38151 -78.89345 36395 ft 465 kts 223°
2026-04-21 17:40 34.32821 -78.93792 36395 ft 465 kts 223°
2026-04-21 17:41 34.27497 -78.98240 36391 ft 465 kts 223°
2026-04-21 17:41 34.22185 -79.02696 36383 ft 465 kts 223°
2026-04-21 17:42 34.16873 -79.07155 36388 ft 464 kts 223°
2026-04-21 17:42 34.11577 -79.11595 36390 ft 463 kts 223°
2026-04-21 17:43 34.06284 -79.16026 36392 ft 463 kts 223°
2026-04-21 17:43 34.01024 -79.20422 36383 ft 463 kts 223°
2026-04-21 17:44 33.95731 -79.24842 36388 ft 462 kts 223°
2026-04-21 17:44 33.90445 -79.29249 36385 ft 462 kts 223°
2026-04-21 17:45 33.85150 -79.33659 36376 ft 462 kts 223°
2026-04-21 17:45 33.79865 -79.38052 36389 ft 462 kts 223°
2026-04-21 17:46 33.74580 -79.42438 36386 ft 462 kts 223°
2026-04-21 17:46 33.69301 -79.46812 36397 ft 460 kts 223°
2026-04-21 17:47 33.64063 -79.51145 36391 ft 459 kts 223°
2026-04-21 17:47 33.58796 -79.55499 36394 ft 459 kts 223°
2026-04-21 17:48 33.53526 -79.59848 36387 ft 459 kts 223°
2026-04-21 17:48 33.48257 -79.64188 36387 ft 460 kts 223°
2026-04-21 17:49 33.42982 -79.68526 36388 ft 460 kts 223°
2026-04-21 17:49 33.38599 -79.72127 36384 ft 460 kts 223°
2026-04-21 17:50 33.32465 -79.77157 36375 ft 460 kts 223°
2026-04-21 17:50 33.27185 -79.81478 36369 ft 460 kts 222°
2026-04-21 17:51 33.21899 -79.85797 36371 ft 460 kts 222°
2026-04-21 17:51 33.17502 -79.89386 36370 ft 460 kts 222°
2026-04-21 17:52 33.12216 -79.93694 36368 ft 460 kts 222°
2026-04-21 17:52 33.06924 -79.98000 36368 ft 460 kts 222°
2026-04-21 17:53 33.01630 -80.02302 36365 ft 460 kts 222°
2026-04-21 17:53 32.96331 -80.06601 36368 ft 460 kts 222°
2026-04-21 17:54 32.91037 -80.10890 36368 ft 460 kts 222°
2026-04-21 17:54 32.85737 -80.15178 36369 ft 460 kts 222°
2026-04-21 17:55 32.80432 -80.19463 36366 ft 460 kts 222°
2026-04-21 17:55 32.75164 -80.23713 36364 ft 461 kts 221°
2026-04-21 17:56 32.69854 -80.27991 36367 ft 461 kts 221°
2026-04-21 17:56 32.64536 -80.32269 36366 ft 461 kts 221°
2026-04-21 17:57 32.59220 -80.36538 36363 ft 461 kts 221°
2026-04-21 17:57 32.53742 -80.40578 36361 ft 466 kts 217°
2026-04-21 17:58 32.48080 -80.44354 36367 ft 467 kts 216°
2026-04-21 17:58 32.42404 -80.48102 36361 ft 467 kts 217°
2026-04-21 17:59 32.36750 -80.51879 36355 ft 466 kts 217°
2026-04-21 17:59 32.31142 -80.55647 36350 ft 466 kts 217°
2026-04-21 18:00 32.25512 -80.59432 36343 ft 465 kts 217°
2026-04-21 18:00 32.19884 -80.63209 36375 ft 465 kts 217°
2026-04-21 18:01 32.14253 -80.66981 36376 ft 465 kts 217°
2026-04-21 18:01 32.08630 -80.70742 36370 ft 465 kts 217°
2026-04-21 18:02 32.03001 -80.74501 36364 ft 465 kts 217°
2026-04-21 18:02 31.97412 -80.78228 36354 ft 464 kts 216°
2026-04-21 18:03 31.91795 -80.81967 36345 ft 463 kts 216°
2026-04-21 18:03 31.86181 -80.85701 36344 ft 463 kts 216°
2026-04-21 18:04 31.80562 -80.89433 36345 ft 463 kts 216°
2026-04-21 18:04 31.74949 -80.93155 36314 ft 463 kts 216°
2026-04-21 18:05 31.69345 -80.96865 36335 ft 462 kts 216°
2026-04-21 18:05 31.63744 -81.00569 36333 ft 461 kts 216°
2026-04-21 18:06 31.58174 -81.04235 36335 ft 462 kts 215°
2026-04-21 18:06 31.52486 -81.07780 36334 ft 463 kts 214°
2026-04-21 18:07 31.46759 -81.11259 36327 ft 463 kts 214°
2026-04-21 18:07 31.41036 -81.14738 36328 ft 463 kts 214°
2026-04-21 18:08 31.35301 -81.18209 36325 ft 463 kts 214°
2026-04-21 18:08 31.29548 -81.21626 36322 ft 464 kts 213°
2026-04-21 18:09 31.23790 -81.25033 36322 ft 464 kts 213°
2026-04-21 18:09 31.17692 -81.27714 36321 ft 478 kts 198°
2026-04-21 18:10 31.11019 -81.28353 36314 ft 487 kts 187°
2026-04-21 18:10 31.04208 -81.28360 36323 ft 492 kts 185°
2026-04-21 18:11 30.97360 -81.28263 36333 ft 492 kts 185°
2026-04-21 18:11 30.94244 -81.28165 38802 ft 412 kts 186°
2026-04-21 18:11 30.91483 -81.28023 39512 ft 400 kts 187°
2026-04-21 18:12 30.88616 -81.27920 38076 ft 425 kts 187°
2026-04-21 18:12 30.85579 -81.27872 36669 ft 447 kts 186°
2026-04-21 18:12 30.82405 -81.27850 35497 ft 465 kts 186°
2026-04-21 18:12 30.79134 -81.27841 35229 ft 476 kts 185°
2026-04-21 18:13 30.75784 -81.27842 35071 ft 487 kts 185°
2026-04-21 18:13 30.72368 -81.27851 34946 ft 493 kts 185°
2026-04-21 18:13 30.68926 -81.27863 34832 ft 494 kts 185°
2026-04-21 18:13 30.65493 -81.27875 34700 ft 494 kts 185°
2026-04-21 18:14 30.58581 -81.27906 34504 ft 497 kts 185°
2026-04-21 18:14 30.55174 -81.27757 34533 ft 494 kts 180°
2026-04-21 18:14 30.51780 -81.27433 34356 ft 484 kts 180°
2026-04-21 18:15 30.48449 -81.27115 34329 ft 478 kts 180°
2026-04-21 18:15 30.41816 -81.26561 34331 ft 479 kts 181°
2026-04-21 18:16 30.35162 -81.26057 34332 ft 479 kts 181°
2026-04-21 18:16 30.28504 -81.25570 34331 ft 479 kts 181°
2026-04-21 18:17 30.21852 -81.25088 33812 ft 478 kts 181°
2026-04-21 18:17 30.18539 -81.24848 33342 ft 476 kts 181°
2026-04-21 18:17 30.15248 -81.24610 32875 ft 472 kts 181°
2026-04-21 18:17 30.11981 -81.24374 32419 ft 468 kts 181°
2026-04-21 18:18 30.08742 -81.24140 31958 ft 464 kts 181°
2026-04-21 18:18 30.05531 -81.23909 31505 ft 460 kts 181°
2026-04-21 18:18 30.02346 -81.23681 31072 ft 456 kts 181°
2026-04-21 18:18 29.99189 -81.23454 30643 ft 452 kts 181°
2026-04-21 18:19 29.96050 -81.23230 30185 ft 455 kts 181°
2026-04-21 18:19 29.92902 -81.23008 29643 ft 463 kts 180°
2026-04-21 18:19 29.89673 -81.22779 29114 ft 464 kts 180°
2026-04-21 18:19 29.86448 -81.22547 28572 ft 462 kts 180°
2026-04-21 18:20 29.83256 -81.22317 28056 ft 458 kts 180°
2026-04-21 18:20 29.80087 -81.22089 27529 ft 454 kts 180°
2026-04-21 18:20 29.76950 -81.21864 27027 ft 450 kts 180°
2026-04-21 18:20 29.73832 -81.21642 26530 ft 447 kts 180°
2026-04-21 18:21 29.70738 -81.21416 26043 ft 444 kts 180°
2026-04-21 18:21 29.67666 -81.21162 25566 ft 441 kts 179°
2026-04-21 18:21 29.64613 -81.20899 25091 ft 438 kts 179°
2026-04-21 18:21 29.61627 -81.20641 24633 ft 434 kts 179°
2026-04-21 18:22 29.58620 -81.20382 24181 ft 431 kts 179°
2026-04-21 18:22 29.55633 -81.20126 23695 ft 428 kts 179°
2026-04-21 18:22 29.52675 -81.19872 23151 ft 425 kts 179°
2026-04-21 18:22 29.49737 -81.19620 22626 ft 422 kts 179°
2026-04-21 18:23 29.46817 -81.19370 22112 ft 419 kts 179°
2026-04-21 18:23 29.43921 -81.19122 21604 ft 415 kts 179°
2026-04-21 18:23 29.41056 -81.18877 21103 ft 411 kts 179°
2026-04-21 18:23 29.38219 -81.18635 20616 ft 407 kts 178°
2026-04-21 18:24 29.35403 -81.18395 20127 ft 404 kts 178°
2026-04-21 18:24 29.32609 -81.18157 19650 ft 400 kts 178°
2026-04-21 18:24 29.29840 -81.17922 19179 ft 397 kts 178°
2026-04-21 18:24 29.27102 -81.17652 18740 ft 394 kts 176°
2026-04-21 18:25 29.24385 -81.17382 18254 ft 390 kts 178°
2026-04-21 18:25 29.21681 -81.17161 17757 ft 387 kts 178°
2026-04-21 18:25 29.19042 -81.16832 17279 ft 387 kts 169°
2026-04-21 18:25 29.16464 -81.15956 16793 ft 386 kts 161°
2026-04-21 18:26 29.13962 -81.14892 16327 ft 382 kts 160°
2026-04-21 18:26 29.11489 -81.13804 15859 ft 378 kts 160°
2026-04-21 18:26 29.09046 -81.12730 15401 ft 375 kts 160°
2026-04-21 18:26 29.06613 -81.11686 14953 ft 371 kts 161°
2026-04-21 18:27 29.04179 -81.10732 14504 ft 368 kts 162°
2026-04-21 18:27 29.01759 -81.09812 14057 ft 365 kts 162°
2026-04-21 18:27 28.99357 -81.08903 13563 ft 362 kts 162°
2026-04-21 18:27 28.96936 -81.08164 13076 ft 358 kts 170°
2026-04-21 18:28 28.94472 -81.07784 12581 ft 355 kts 174°
2026-04-21 18:28 28.92026 -81.07494 12117 ft 352 kts 175°
2026-04-21 18:28 28.89595 -81.07247 11637 ft 349 kts 178°
2026-04-21 18:28 28.87198 -81.07537 11190 ft 345 kts 195°
2026-04-21 18:29 28.84948 -81.08355 10744 ft 342 kts 200°
2026-04-21 18:29 28.82718 -81.09290 10330 ft 338 kts 201°
2026-04-21 18:29 28.80549 -81.10212 10138 ft 326 kts 201°
2026-04-21 18:29 28.78447 -81.11101 9883 ft 317 kts 200°
2026-04-21 18:30 28.76403 -81.11960 9615 ft 309 kts 200°
2026-04-21 18:30 28.74411 -81.12794 9357 ft 302 kts 200°
2026-04-21 18:30 28.72455 -81.13610 9061 ft 297 kts 199°
2026-04-21 18:30 28.70512 -81.14371 8766 ft 293 kts 195°
2026-04-21 18:31 28.68545 -81.14948 8461 ft 290 kts 192°
2026-04-21 18:31 28.66593 -81.15463 8147 ft 286 kts 190°
2026-04-21 18:31 28.64667 -81.15961 7863 ft 281 kts 191°
2026-04-21 18:31 28.62770 -81.16451 7567 ft 278 kts 189°
2026-04-21 18:32 28.60899 -81.16936 7275 ft 274 kts 189°
2026-04-21 18:32 28.59072 -81.17409 6988 ft 271 kts 190°
2026-04-21 18:32 28.57239 -81.17884 6704 ft 268 kts 190°
2026-04-21 18:32 28.55430 -81.18353 6395 ft 265 kts 188°
2026-04-21 18:33 28.53615 -81.18613 6106 ft 260 kts 178°
2026-04-21 18:33 28.51818 -81.18666 5864 ft 258 kts 177°
2026-04-21 18:33 28.50024 -81.18679 5625 ft 256 kts 176°
2026-04-21 18:33 28.48246 -81.18687 5381 ft 255 kts 175°
2026-04-21 18:34 28.46483 -81.18698 5132 ft 252 kts 175°
2026-04-21 18:34 28.44735 -81.18712 4944 ft 250 kts 175°
2026-04-21 18:34 28.42994 -81.18724 4827 ft 252 kts 176°
2026-04-21 18:34 28.41214 -81.18734 4689 ft 259 kts 176°
2026-04-21 18:35 28.40013 -81.18741 4612 ft 261 kts 175°
2026-04-21 18:35 28.37581 -81.18759 4454 ft 261 kts 175°
2026-04-21 18:35 28.35751 -81.18772 4327 ft 264 kts 176°
2026-04-21 18:35 28.33908 -81.18785 4202 ft 266 kts 176°
2026-04-21 18:36 28.32057 -81.18802 4081 ft 266 kts 175°
2026-04-21 18:36 28.30209 -81.18835 3955 ft 265 kts 175°
2026-04-21 18:36 28.28390 -81.18880 3835 ft 265 kts 176°
2026-04-21 18:36 28.26528 -81.18923 3659 ft 262 kts 177°
2026-04-21 18:37 28.24753 -81.19006 3443 ft 257 kts 185°
2026-04-21 18:37 28.23115 -81.19812 3236 ft 262 kts 215°
2026-04-21 18:37 28.21994 -81.21447 3041 ft 267 kts 246°
2026-04-21 18:37 28.21633 -81.23491 2997 ft 267 kts 268°
2026-04-21 18:38 28.21860 -81.25557 2982 ft 262 kts 294°
2026-04-21 18:38 28.22449 -81.26733 2974 ft 248 kts 314°
2026-04-21 18:38 28.23711 -81.27884 2978 ft 228 kts 337°
2026-04-21 18:38 28.25153 -81.28389 2976 ft 208 kts 358°
2026-04-21 18:39 28.26538 -81.28454 2783 ft 194 kts
2026-04-21 18:39 28.27865 -81.28421 2503 ft 188 kts
2026-04-21 18:39 28.29156 -81.28404 2234 ft 183 kts
2026-04-21 18:39 28.30395 -81.28376 2025 ft 172 kts
2026-04-21 18:40 28.31579 -81.28324 1991 ft 170 kts
2026-04-21 18:40 28.32761 -81.28281 1994 ft 170 kts
2026-04-21 18:40 28.33934 -81.28182 1861 ft 173 kts
2026-04-21 18:40 28.35179 -81.28316 1589 ft 176 kts 359°
2026-04-21 18:41 28.36337 -81.28343 1286 ft 158 kts 11°
2026-04-21 18:41 28.37401 -81.28247 1043 ft 151 kts 13°
2026-04-21 18:41 28.38459 -81.28208 800 ft 154 kts
2026-04-21 18:41 28.39519 -81.28243 575 ft 151 kts
2026-04-21 18:42 28.40564 -81.28241 376 ft 149 kts
2026-04-21 18:42 28.41585 -81.28242 191 ft 143 kts 12°
2026-04-21 18:42 28.42540 -81.28237 111 ft 126 kts
2026-04-21 18:42 28.43258 -81.28247 103 ft 71 kts 359°
2026-04-21 18:43 28.43527 -81.28295 105 ft 17 kts 311°
2026-04-21 18:43 28.43605 -81.28374 107 ft 14 kts 345°
2026-04-21 18:43 28.43707 -81.28377 108 ft 15 kts 360°
2026-04-21 18:43 28.43809 -81.28377 109 ft 14 kts 360°
2026-04-21 18:44 28.43877 -81.28433 111 ft 13 kts 273°
2026-04-21 18:44 28.43874 -81.28578 110 ft 21 kts 269°
2026-04-21 18:44 28.43873 -81.28739 109 ft 21 kts 269°
2026-04-21 18:44 28.43872 -81.28951 110 ft 31 kts 270°
2026-04-21 18:45 28.43870 -81.29190 103 ft 21 kts 270°
2026-04-21 18:45 28.43804 -81.29265 104 ft 14 kts 179°
2026-04-21 18:45 28.43680 -81.29262 105 ft 20 kts 179°
2026-04-21 18:45 28.43556 -81.29304 108 ft 18 kts 250°
2026-04-21 18:46 28.43553 -81.29479 110 ft 29 kts 269°
2026-04-21 18:46 28.43542 -81.29686 106 ft 20 kts 242°
2026-04-21 18:46 28.43407 -81.29711 109 ft 26 kts 178°
2026-04-21 18:46 28.43226 -81.29708 109 ft 26 kts 179°
2026-04-21 18:47 28.43038 -81.29708 107 ft 27 kts 180°
2026-04-21 18:47 28.42910 -81.29763 107 ft 18 kts 270°
2026-04-21 18:47 28.42919 -81.29897 106 ft 15 kts 289°
2026-04-21 18:47 28.42971 -81.29993 106 ft 14 kts 295°
2026-04-21 18:48 28.42970 -81.30099 106 ft 13 kts 245°
2026-04-21 18:48 28.42965 -81.30110 106 ft 1 kts 239°
2026-04-21 18:48 28.42961 -81.30117 105 ft 1 kts 238°
2026-04-21 18:48 28.42954 -81.30124 105 ft 1 kts 217°
2026-04-21 18:49 28.42945 -81.30127 106 ft 2 kts 188°
2026-04-21 18:49 28.42927 -81.30120 105 ft 5 kts 153°
2026-04-21 18:49 28.42904 -81.30104 106 ft 6 kts 147°
2026-04-21 18:49 28.42882 -81.30087 106 ft 2 kts 145°
2026-04-21 18:50 28.42880 -81.30086 106 ft 0 kts 145°